Terminal Aerodrome Forecast
Issued by NWS

Home | Current Version | Previous Version | Text Only | Print | Product List | Glossary On
Versions: 1 2 3 4 5 6 7 8 9 10 11 12 13 14 15 16
000
FTUS46 KPDT 291400 AAC
TAFYKM
TAF AMD
KYKM 291404Z 2914/3012 03015G30KT P6SM VCSH BKN025 OVC035
     FM291600 34015G25KT P6SM SCT050 BKN070
     FM291800 34015G25KT P6SM FEW080
     FM300200 29011KT P6SM SKC=

USA.gov is the U.S. government's official web portal to all federal, state and local government web resources and services.